[[{"header":{"parameterUnit":"m.s-1","parameterCategory":1,"la1":30.2991,"la2":30.254,"lo1":-89.0895,"lo2":-89.0444,"dy":0.0017,"dx":0.0017,"nx":28,"ny":28,"refTime":"2023-10-20T09:00:00:Z","depth":0,"parameterNumber":2,"parameterNumberName":"U-component_of_WINDS"},"data":[0,0,0,0,0,0,0,0,0,0,0,0,0,0,0,0,0,0,0,0,0,0,0,0,0,0,0,0,0,0,0,0,0,0,0,0,0,0,0,0,0,0,0,0,0,0,0,0,0,0,0,0,0,0,0,0,0,0,4.8382,4.8383,0,4.8426,4.8427,4.8427,4.8384,4.8383,4.8381,4.8379,4.8426,4.8429,4.8431,0,0,0,0,0,0,0,0,0,0,0,0,0,4.8266,4.8268,4.8382,4.8383,4.8383,4.8426,4.8427,4.8427,4.8385,4.8383,4.8381,4.8379,4.8425,4.8428,4.8432,0,0,0,0,0,0,0,0,0,0,0,0,0,4.8314,4.8269,4.8382,4.8367,4.8366,4.8426,4.8427,4.8427,4.8385,4.8383,4.838,4.8378,4.8424,4.8428,4.8432,4.8509,0,0,4.8445,4.8447,0,0,0,0,0,0,0,0,4.8311,4.8318,4.8369,4.8368,4.8367,4.8397,4.8403,4.8455,4.8386,4.8378,4.8379,4.8377,4.8418,4.8423,4.8437,4.8511,4.8513,4.8445,4.8448,4.845,4.8451,0,0,0,0,0,0,0,4.8308,4.8316,4.8399,4.837,4.8369,4.836,4.8364,4.8412,4.8412,4.8379,4.8376,4.8381,4.8418,4.8433,4.8438,4.8514,4.8445,4.8449,4.8452,4.8453,4.866,4.8663,0,0,0,0,0,0,4.8306,4.8313,4.8398,4.8401,4.8332,4.8364,4.8368,4.839,4.8411,4.8412,4.8383,4.8379,4.8427,4.8433,4.8439,4.8535,4.845,4.8454,4.8456,4.8657,4.8661,4.8664,0,0,0,0,0,0,4.8303,4.8314,4.8396,4.8356,4.8366,4.8369,4.8393,4.8392,4.8408,4.8415,4.8415,4.8399,4.8425,4.8433,4.8493,4.8536,4.8456,4.8459,4.8653,4.8658,4.8662,4.8725,0,0,0,0,0,0,4.83,4.8313,4.8341,4.8357,4.8369,4.8449,4.8396,4.8395,4.8415,4.841,4.8429,4.843,4.8424,4.8487,4.8497,4.854,4.8463,4.865,4.8655,4.8661,4.8719,4.8731,4.8741,0,0,0,0,0,4.8296,4.8356,4.8342,4.8353,4.8403,4.8451,4.8457,4.8448,4.8418,4.8448,4.8453,4.843,4.8529,4.8494,4.8505,4.855,4.8647,4.8654,4.866,4.8714,4.8728,4.8741,0,0,0,0,0,0,4.8343,4.8357,4.8343,4.8409,4.843,4.8444,4.848,4.8463,4.8492,4.8486,4.8474,4.8479,4.8544,4.8552,4.8512,4.8628,4.8583,4.8593,4.862,4.8634,4.8645,4.8643,4.8466,0,0,0,0,0,4.8361,4.8398,4.8408,4.8466,4.8477,4.8477,4.8497,4.8489,4.851,4.8518,4.8527,4.8549,4.8586,4.861,4.8643,4.8719,4.8726,4.8756,4.8767,4.8776,4.8785,4.8831,4.8846,4.8686,4.8686,4.8685,0,0,4.8399,4.8411,4.8435,4.8476,4.8491,4.8532,4.8484,4.8528,4.8559,4.8524,4.8583,4.8591,4.8615,4.8685,4.8716,4.8694,4.8831,4.8784,4.8792,4.8796,4.884,4.8855,4.8869,4.869,4.8689,4.8689,0,0,4.849,4.8501,4.8553,4.8569,4.8592,4.8593,4.8605,4.8623,4.8628,4.8687,4.8664,4.87,4.8762,4.8782,4.88,4.8903,4.8884,4.8914,4.8972,4.9017,4.903,4.9042,4.9083,4.9097,4.8922,4.8922,4.8922,0,4.8534,4.8593,4.8581,4.8628,4.8649,4.8621,4.8676,4.8692,4.8725,4.8741,4.8716,4.8797,4.881,4.8887,4.8913,4.8926,4.8944,4.8912,4.9029,4.904,4.9051,4.909,4.9105,4.8926,4.8926,4.8925,4.8925,0,4.8649,4.869,4.8729,4.8764,4.8789,4.8839,4.8838,4.8865,4.8855,4.8859,4.8922,4.8938,4.8977,4.8994,4.8983,4.9071,4.9057,4.903,4.8986,4.907,4.9107,4.9122,4.8932,4.893,4.8929,4.8928,0,0,4.8768,4.8799,4.8814,4.8832,4.8858,4.8891,4.8941,4.898,4.9006,4.903,4.9075,4.913,4.9108,4.9128,4.9121,4.916,4.9247,4.9129,4.913,4.9154,4.935,4.9372,4.939,4.9234,4.9237,4.9239,4.9349,0,4.8863,4.8951,4.8945,4.9029,4.907,4.9046,4.9091,4.9114,4.9119,4.9157,4.9163,4.9204,4.9168,4.9182,4.9219,4.9228,4.9287,4.922,4.9279,4.9281,4.9277,4.9408,4.9431,4.9534,4.9363,4.9366,4.9367,0,4.8984,4.9016,4.9105,4.913,4.9147,4.9187,4.9225,4.9259,4.9286,4.9288,4.9313,4.93,4.9355,4.9308,4.9385,4.934,4.9364,4.9373,4.9376,4.9384,4.9331,4.9423,4.9566,4.9583,4.9389,4.9387,4.9386,0,4.9069,4.9133,4.9196,4.9211,4.924,4.927,4.9284,4.9307,4.9333,4.9366,4.9383,4.9422,4.9444,4.9476,4.9475,4.944,4.9555,4.9507,4.9562,4.9562,4.9589,4.9587,4.9742,4.9598,4.9598,4.9598,4.9597,0,4.9177,4.9234,4.9235,4.9274,4.9338,4.9331,4.9395,4.9406,4.9428,4.9471,4.9451,4.9492,4.9487,4.9529,4.9528,4.9596,4.9605,4.961,4.961,4.9614,4.9614,4.9631,4.9625,4.9602,4.9601,4.96,4.96,0,4.9283,4.9285,4.9353,4.9376,4.9384,4.9431,4.9451,4.949,4.9495,4.955,4.9562,4.9571,4.962,4.9622,4.9677,4.9677,4.9761,4.975,4.9752,4.9752,4.9808,4.9804,4.9981,5.0006,4.9843,4.9845,4.9846,0,4.9353,4.9396,4.9425,4.9453,4.9469,4.9513,4.954,4.9536,4.9565,4.9601,4.9636,4.9683,4.9721,4.98,4.9813,4.9857,4.985,4.9909,4.9856,4.9861,4.9856,4.9855,4.9861,4.992,4.9922,4.9923,4.9925,0,4.9479,4.948,4.9519,4.9561,4.9593,4.9625,4.9655,4.9679,4.9679,4.9713,4.9764,4.9793,4.9852,4.99,4.9944,4.996,4.9944,4.9941,4.9957,4.9963,4.9964,4.9969,4.9784,4.9937,4.9936,4.9935,4.9934,4.9934,4.9572,4.9612,4.964,4.9686,4.9708,4.9738,4.9777,4.9788,4.983,4.9878,4.9873,4.993,4.996,5.0017,5.0037,5.0083,5.0063,5.0085,5.0091,5.0097,5.0105,4.9954,5.009,5.009,5.009,5.0089,5.0089,0,4.9701,4.9719,4.9761,4.9805,4.9842,4.9824,4.9857,4.989,4.9941,4.997,5.0008,5.0069,5.0117,5.0135,5.0182,5.0216,5.0211,5.0229,5.0229,5.0234,5.0118,5.0102,5.0234,5.0234,5.0234,5.0234,5.0233,5.0233,4.9773,4.984,4.9845,4.9925,4.9943,4.9999,5.0021,5.0049,5.0073,5.0142,5.0182,5.0193,5.0219,5.0269,5.0314,5.0318,5.0338,5.0361,5.0363,5.0255,5.0241,5.0227,5.0212,5.0365,5.0365,5.0475,5.0476,5.0476]},{"header":{"parameterUnit":"m.s-1","parameterCategory":1,"la1":30.2991,"la2":30.254,"lo1":-89.0895,"lo2":-89.0444,"dy":0.0017,"dx":0.0017,"nx":28,"ny":28,"refTime":"2023-10-20T09:00:00:Z","depth":0,"parameterNumber":3,"parameterNumberName":"V-component_of_WINDS"},"data":[0,0,0,0,0,0,0,0,0,0,0,0,0,0,0,0,0,0,0,0,0,0,0,0,0,0,0,0,0,0,0,0,0,0,0,0,0,0,0,0,0,0,0,0,0,0,0,0,0,0,0,0,0,0,0,0,0,0,1.1159,1.1161,0,1.1328,1.1329,1.1331,1.1348,1.1347,1.1345,1.1343,1.1518,1.1524,1.153,0,0,0,0,0,0,0,0,0,0,0,0,0,1.0853,1.0858,1.1159,1.1161,1.1163,1.1327,1.133,1.1332,1.1349,1.1347,1.1344,1.1342,1.1516,1.1523,1.1531,0,0,0,0,0,0,0,0,0,0,0,0,0,1.1,1.086,1.1159,1.1191,1.1196,1.1327,1.133,1.1332,1.1349,1.1346,1.1344,1.1341,1.1513,1.1522,1.1532,1.1642,0,0,1.156,1.1564,0,0,0,0,0,0,0,0,1.0992,1.1011,1.1184,1.1189,1.1195,1.1314,1.1286,1.1436,1.135,1.1291,1.1343,1.134,1.1452,1.1466,1.1504,1.165,1.1658,1.1561,1.1567,1.1571,1.1574,0,0,0,0,0,0,0,1.0981,1.1004,1.1226,1.1187,1.1193,1.1198,1.1216,1.1314,1.1384,1.1296,1.1298,1.1317,1.1455,1.1495,1.1508,1.166,1.1561,1.1569,1.1575,1.1579,1.1902,1.1905,0,0,0,0,0,0,1.0965,1.0995,1.122,1.1231,1.1085,1.1205,1.1226,1.1279,1.1383,1.1397,1.1319,1.1317,1.148,1.1497,1.1514,1.1648,1.1571,1.158,1.1585,1.1899,1.1903,1.1906,0,0,0,0,0,0,1.0958,1.0985,1.1214,1.1114,1.1143,1.1213,1.1273,1.1283,1.1323,1.1401,1.1414,1.1347,1.1479,1.1501,1.1609,1.1654,1.1584,1.1592,1.1896,1.1901,1.1905,1.1918,0,0,0,0,0,0,1.0949,1.0982,1.1025,1.1114,1.1148,1.1306,1.1276,1.1288,1.1339,1.1338,1.1431,1.1443,1.1478,1.1595,1.1619,1.1666,1.16,1.1892,1.1898,1.1903,1.1914,1.1922,1.193,0,0,0,0,0,1.0938,1.1023,1.1027,1.1054,1.1203,1.1308,1.1328,1.1366,1.1343,1.1386,1.1436,1.144,1.1646,1.1606,1.1633,1.1684,1.189,1.1896,1.1903,1.191,1.1921,1.1929,0,0,0,0,0,0,1.0939,1.1036,1.1041,1.1157,1.1224,1.1311,1.1367,1.1376,1.1452,1.1448,1.1492,1.1513,1.1618,1.1662,1.1616,1.1795,1.1765,1.1778,1.1762,1.1772,1.178,1.1767,1.1608,0,0,0,0,0,1.0952,1.1029,1.111,1.1204,1.1238,1.1296,1.1344,1.1367,1.1438,1.1467,1.1525,1.1594,1.1674,1.1726,1.1804,1.192,1.194,1.1969,1.1976,1.1982,1.1992,1.2054,1.2067,1.1928,1.1928,1.1928,0,0,1.0981,1.1043,1.1089,1.1206,1.1261,1.1339,1.132,1.1405,1.1463,1.148,1.1585,1.1629,1.171,1.1822,1.1874,1.1862,1.2035,1.1991,1.1995,1.2002,1.2062,1.2075,1.2087,1.1933,1.1932,1.1931,0,0,1.1073,1.1128,1.1212,1.1267,1.1349,1.1387,1.1407,1.1493,1.1522,1.1628,1.1641,1.1712,1.1849,1.1905,1.1952,1.2062,1.2069,1.2087,1.2127,1.2187,1.2198,1.2208,1.2245,1.2258,1.2096,1.2096,1.2096,0,1.1098,1.1216,1.1254,1.1337,1.1387,1.1405,1.149,1.1541,1.1645,1.1679,1.1664,1.1835,1.1891,1.2014,1.2041,1.2079,1.2102,1.2076,1.2194,1.2204,1.2214,1.2249,1.2264,1.2098,1.2098,1.2097,1.2097,0,1.1242,1.1324,1.1382,1.148,1.1537,1.162,1.167,1.1724,1.1741,1.1781,1.1887,1.1954,1.2045,1.2076,1.2095,1.2202,1.2191,1.2184,1.2156,1.2228,1.2262,1.2276,1.21,1.2099,1.2099,1.2099,0,0,1.1339,1.1456,1.1476,1.152,1.1611,1.1675,1.1759,1.1846,1.189,1.1961,1.2031,1.2146,1.2139,1.2192,1.2217,1.227,1.235,1.2256,1.2258,1.2269,1.2469,1.2472,1.2487,1.2355,1.2358,1.236,1.2461,0,1.144,1.1588,1.1624,1.1751,1.1826,1.1843,1.1916,1.198,1.2018,1.2087,1.2131,1.221,1.2197,1.2228,1.2281,1.2329,1.239,1.2322,1.2419,1.2422,1.2397,1.2506,1.2511,1.2603,1.2475,1.2477,1.2479,0,1.1577,1.1649,1.1783,1.1862,1.1895,1.196,1.2041,1.2108,1.2179,1.2204,1.2261,1.2281,1.2368,1.2335,1.2454,1.2407,1.2449,1.2478,1.2483,1.2492,1.2454,1.2516,1.2633,1.2646,1.2501,1.2499,1.2498,0,1.1631,1.1762,1.1858,1.1896,1.1991,1.2035,1.2078,1.2147,1.2196,1.2268,1.23,1.2382,1.2426,1.2488,1.2528,1.2501,1.2643,1.2615,1.2665,1.2664,1.2693,1.269,1.2816,1.2723,1.2723,1.2723,1.2722,0,1.1739,1.1819,1.1883,1.1943,1.2033,1.2073,1.2162,1.2204,1.2265,1.2332,1.2353,1.2416,1.2466,1.2535,1.2568,1.266,1.268,1.2702,1.2709,1.2699,1.2696,1.2726,1.272,1.2726,1.2726,1.2725,1.2724,0,1.1814,1.186,1.1966,1.2047,1.2069,1.2132,1.2202,1.2259,1.2298,1.2382,1.2405,1.2466,1.2548,1.2595,1.2699,1.272,1.2822,1.2828,1.2797,1.28,1.2847,1.2841,1.2995,1.3016,1.2911,1.2911,1.2912,0,1.1878,1.1941,1.2028,1.2073,1.2116,1.219,1.224,1.2282,1.2333,1.2418,1.2465,1.2548,1.2617,1.2747,1.2801,1.288,1.2886,1.2935,1.2898,1.2885,1.2884,1.2879,1.2884,1.294,1.2941,1.2942,1.2943,0,1.1987,1.2006,1.2077,1.2156,1.2215,1.2279,1.2343,1.2379,1.2432,1.2488,1.2572,1.2625,1.273,1.2811,1.2894,1.2937,1.2948,1.2954,1.2969,1.2959,1.2937,1.2947,1.2812,1.295,1.2949,1.2949,1.2948,1.2948,1.2058,1.2113,1.2182,1.226,1.2312,1.237,1.2427,1.2473,1.2543,1.2631,1.2652,1.2739,1.2808,1.292,1.2965,1.3033,1.3024,1.3047,1.3053,1.3057,1.3057,1.2928,1.3049,1.3049,1.3048,1.3048,1.3048,0,1.2165,1.221,1.2281,1.2369,1.243,1.2434,1.2505,1.2555,1.2632,1.2694,1.2761,1.2856,1.2935,1.2994,1.3074,1.3117,1.3124,1.3137,1.3133,1.3142,1.3062,1.3039,1.3129,1.3129,1.3129,1.3129,1.3129,1.3129,1.2228,1.232,1.2348,1.2466,1.251,1.2596,1.2635,1.2688,1.2738,1.2843,1.2908,1.2946,1.3007,1.3091,1.3163,1.3179,1.3206,1.3218,1.3233,1.3157,1.3148,1.314,1.3119,1.3224,1.3224,1.3308,1.3308,1.3309]}]]